Weather History for Orlando, FL

Change the Weather History Date:

Friday, February 22, 2013

  Actual Average Record
Temperature  
Mean Temperature 74 °F -  
Max Temperature 86 °F 72 °F 86 °F (1997)
Min Temperature 62 °F 54 °F 39 °F (1999)
Cooling Degree Days 9    
Growing Degree Days 24 (Base 50)    
Moisture  
Dew Point 64 °F    
Average Humidity 85    
Maximum Humidity 100    
Minimum Humidity 41    
Precipitation  
Precipitation 0.00 in - - ()
Sea Level Pressure  
Sea Level Pressure 30.07 in    
Wind  
Wind Speed 5 mph (SSE)    
Max Wind Speed 16 mph    
Max Gust Speed 21 mph    
Visibility 6 miles    
Events Fog    
Averages and records for this station are not official NWS values.
T = Trace of Precipitation, MM = Missing Value Source: NWS Daily Summary

Daily Weather History Graph

Daily Weather History Graph

Search for Another Location

Airport:

Trip Planner

Search our weather history database for the weather conditions in past years. The results will help you decide how hot, cold, wet, or windy it might be!

Date:

Astronomy

Feb. 22, 2013 Rise Set
Actual Time 6:57 AM EST 6:20 PM EST
Civil Twilight 6:33 AM EST 6:44 PM EST
Nautical Twilight 6:05 AM EST 7:12 PM EST
Astronomical Twilight 5:38 AM EST 7:39 PM EST
Moon 3:39 PM EST (2/22) 4:31 AM EST (2/22)
Length of Visible Light 12h 11m
Length of Day
11h 23m
Waxing Gibbous, 90% of the Moon is Illuminated
Feb 22
Waxing Gibbous
Feb 25
Full
Mar 4
Last Quarter
Mar 11
New
Mar 19
First Quarter

Hourly Weather History & Observations

Time (EST) Temp. Heat Index Dew Point Humidity Pressure Visibility Wind Dir Wind Speed Gust Speed Precip Events Conditions
12:53 AM 69.1 °F - 64.9 °F 87% 30.07 in 10.0 mi SSE 5.8 mph - N/A   Mostly Cloudy
1:53 AM 68.0 °F - 64.9 °F 90% 30.06 in 10.0 mi SSE 5.8 mph - N/A   Partly Cloudy
2:53 AM 66.0 °F - 64.0 °F 93% 30.06 in 10.0 mi SSE 3.5 mph - N/A   Partly Cloudy
3:53 AM 66.0 °F - 64.0 °F 93% 30.06 in 8.0 mi Calm Calm - N/A   Clear
4:23 AM 64.4 °F - 64.4 °F 100% 30.05 in 1.8 mi Calm Calm - N/A   Clear
4:37 AM 62.6 °F - 62.6 °F 100% 30.05 in 0.5 mi Calm Calm - N/A Fog Fog
4:53 AM 64.0 °F - 63.0 °F 96% 30.07 in 1.0 mi Calm Calm - N/A   Clear
5:03 AM 64.4 °F - 62.6 °F 94% 30.06 in 6.0 mi Calm Calm - N/A   Clear
5:29 AM 62.6 °F - 62.6 °F 100% 30.07 in 1.2 mi Calm Calm - N/A   Partly Cloudy
5:31 AM 62.6 °F - 62.6 °F 100% 30.07 in 0.8 mi Calm Calm - N/A   Mist
5:43 AM 62.6 °F - 62.6 °F 100% 30.07 in 0.2 mi Calm Calm - N/A Fog Fog
5:53 AM 62.1 °F - 62.1 °F 100% 30.08 in 0.5 mi SE 3.5 mph - N/A Fog Fog
6:01 AM 62.6 °F - 60.8 °F 94% 30.07 in 1.2 mi SE 3.5 mph - N/A   Scattered Clouds
6:11 AM 62.6 °F - 62.6 °F 100% 30.07 in 2.5 mi SE 3.5 mph - N/A   Partly Cloudy
6:20 AM 62.6 °F - 60.8 °F 94% 30.07 in 4.0 mi ESE 3.5 mph - N/A   Clear
6:25 AM 62.6 °F - 60.8 °F 94% 30.07 in 1.8 mi ESE 3.5 mph - N/A   Partly Cloudy
6:28 AM 62.6 °F - 60.8 °F 94% 30.07 in 0.8 mi SE 3.5 mph - N/A   Mist
6:39 AM 62.6 °F - 60.8 °F 94% 30.07 in 0.2 mi SE 3.5 mph - N/A Fog Fog
6:53 AM 62.1 °F - 61.0 °F 96% 30.09 in 0.5 mi SE 3.5 mph - N/A Fog Fog
6:58 AM 62.6 °F - 60.8 °F 94% 30.08 in 1.2 mi SSE 3.5 mph - N/A   Scattered Clouds
7:07 AM 62.6 °F - 62.6 °F 100% 30.08 in 2.5 mi SE 3.5 mph - N/A   Partly Cloudy
7:14 AM 62.6 °F - 62.6 °F 100% 30.08 in 3.0 mi Calm Calm - N/A   Clear
7:53 AM 66.0 °F - 64.9 °F 96% 30.11 in 5.0 mi Calm Calm - N/A   Clear
8:53 AM 70.0 °F - 66.0 °F 87% 30.12 in 10.0 mi SSE 9.2 mph - N/A   Clear
9:53 AM 75.9 °F - 66.0 °F 71% 30.11 in 10.0 mi South 10.4 mph 19.6 mph N/A   Clear
10:53 AM 79.0 °F - 64.0 °F 60% 30.11 in 10.0 mi South 12.7 mph - N/A   Clear
12:53 PM 82.0 °F 83.4 °F 64.0 °F 54% 30.08 in 10.0 mi SSW 10.4 mph - N/A   Scattered Clouds
1:53 PM 84.0 °F 84.5 °F 62.1 °F 47% 30.05 in 10.0 mi SSW 12.7 mph - N/A   Partly Cloudy
2:53 PM 86.0 °F 85.7 °F 60.1 °F 41% 30.03 in 10.0 mi SSE 11.5 mph 19.6 mph N/A   Partly Cloudy
3:53 PM 84.9 °F 84.8 °F 60.1 °F 43% 30.02 in 10.0 mi SSE 4.6 mph - N/A   Mostly Cloudy
4:53 PM 84.9 °F 84.4 °F 59.0 °F 41% 30.02 in 10.0 mi SSE 9.2 mph - N/A   Scattered Clouds
5:53 PM 80.1 °F 82.7 °F 68.0 °F 67% 30.02 in 10.0 mi ESE 16.1 mph 20.7 mph N/A   Clear
6:53 PM 75.0 °F - 68.0 °F 79% 30.05 in 10.0 mi East 12.7 mph - N/A   Clear
7:53 PM 73.0 °F - 68.0 °F 84% 30.06 in 10.0 mi ESE 12.7 mph - N/A   Clear
8:53 PM 72.0 °F - 68.0 °F 87% 30.07 in 10.0 mi ESE 9.2 mph - N/A   Clear
9:53 PM 72.0 °F - 69.1 °F 91% 30.07 in 10.0 mi SSE 8.1 mph - N/A   Overcast
10:53 PM 72.0 °F - 68.0 °F 87% 30.06 in 10.0 mi SSE 10.4 mph - N/A   Mostly Cloudy
11:53 PM 71.1 °F - 68.0 °F 90% 30.05 in 10.0 mi SSE 5.8 mph - N/A   Clear